Flag for U.S.A. Weather past 2 weeks in New Bedford, Massachusetts, U.S.A.

Now
48 °F

Light rain. Low clouds.


Feels Like: 44 °F
Forecast: 48 / 53 °F
Wind: 9 mph from Northeast

Location: New Bedford Regional Airport

Current Time: Jun 2, 2015 at 5:47:33 AM

Latest Report: Jun 2, 2015 at 4:53 AM


Visibility: 8 mi

Pressure: 30.11 "Hg

Humidity: 96%

Dew point: 47 °F

Location of New BedfordLocation

Historic Weather in New Bedford — Graph

°F

New Bedford temperature yesterday

Maximum temperature yesterday: 52 °F (at 9:53 AM)
Minimum temperature yesterday: 48 °F (at 8:53 PM)
Average temperature yesterday: 50 °F

Past Weeks' High & Low Weather Summary

 TemperatureHumidityPressure
High79 °F (May 29, 11:53 AM)100% (May 19, 5:53 PM)30.33 "Hg (May 19, 5:53 PM)
Low42 °F (May 21, 1:53 AM)24% (May 22, 5:53 PM)29.71 "Hg (May 20, 12:53 AM)
Average61 °F74%30.11 "Hg
* Reported May 18 4:53 AM — Jun 2 4:03 AM, New Bedford, Weather by CustomWeather, © 2015

Note: Actual official high and low records may vary slightly from our data, if they occured in-between our weather recording intervals... More about our weather records

Advertising

New Bedford weather history for previous 24 hours

 ConditionsComfort  
Time TempWeatherWind HumidityBarometerVisibility
4:03 AM
Tue, Jun 2
49 °FLight rain. Low clouds.7 mph93%30.12 "Hg7 mi
3:53 AM49 °FLight rain. Low clouds.8 mph93%30.12 "Hg10 mi
3:00 AM49 °FMostly cloudy.6 mph93%30.13 "Hg10 mi
1:53 AM49 °FLight rain. Mostly cloudy.6 mph93%30.14 "Hg9 mi
12:53 AM48 °FHeavy rain. Fog.8 mph96%30.15 "Hg4 mi
11:53 PM
Mon, Jun 1
49 °FRain. Fog.7 mph93%30.17 "Hg5 mi
10:53 PM49 °FLight rain. Mostly cloudy.6 mph93%30.19 "Hg10 mi
10:00 PM48 °FRain. Fog.9 mph96%30.19 "Hg6 mi
8:53 PM48 °FLight rain. Low clouds.12 mph96%30.18 "Hg10 mi
7:53 PM49 °FLow clouds.10 mph93%30.19 "Hg10 mi
6:53 PM49 °FLight rain. Low clouds.9 mph93%30.19 "Hg10 mi
5:53 PM49 °FLight rain. Fog.9 mph93%30.18 "Hg3 mi
4:53 PM49 °FOvercast.16 mph93%30.18 "Hg10 mi
3:53 PM50 °FLow clouds.16 mph89%30.18 "Hg8 mi
2:53 PM52 °FLow clouds.10 mph89%30.19 "Hg7 mi
1:53 PM52 °FFog.9 mph93%30.19 "Hg6 mi
12:53 PM52 °FFog.7 mph93%30.19 "Hg4 mi
11:53 AM52 °FFog.10 mph93%30.19 "Hg4 mi
10:53 AM52 °FLight rain. Fog.9 mph93%30.19 "Hg5 mi
9:53 AM52 °FLow clouds.8 mph93%30.19 "Hg7 mi
8:53 AM51 °FLow clouds.9 mph96%30.20 "Hg8 mi
8:00 AM51 °FFog.6 mph96%30.20 "Hg3 mi
7:04 AM50 °FFog.9 mph96%30.19 "Hg3 mi
6:53 AM50 °FFog.8 mph96%30.19 "Hg4 mi
6:04 AM50 °FLow clouds.10 mph96%30.18 "Hg7 mi
5:53 AM50 °FLow clouds.9 mph96%30.17 "Hg8 mi
Weather by CustomWeather, © 2015

See weather overviewHow to use our weather pages